This demonstration page uses our WeatherBlox Daily Observations layout. Learn more.

Left ArrowRight Arrow

41.12389, -100.76542

Hourly Observations for September 26, 2020

Temp ( °F °C ) Dew Point ( °F °C ) Humidity (%) Winds ( mph kmh ) Pressure ( in mb ) Visibility ( mi km ) Precip ( " mm )
12:53 am 00:53 Clear 56 13.3 47 8.3 72 72 SE 6 9 29.70 1006 10 16 0.00 0.00
1:53 am 01:53 Clear 55 12.8 47 8.3 74 74 Calm 29.68 1005 10 16 0.00 0.00
2:53 am 02:53 Clear 51 10.6 45 7.2 80 80 NW 5 7 29.67 1005 10 16 0.00 0.00
3:53 am 03:53 Clear 51 10.6 46 7.8 83 83 NW 6 9 29.65 1004 10 16 0.00 0.00
4:53 am 04:53 Clear 51 10.6 46 7.8 83 83 NW 6 9 29.65 1004 10 16 0.00 0.00
5:53 am 05:53 Clear 52 11.1 47 8.3 83 83 WNW 6 9 29.66 1004 10 16 0.00 0.00
6:53 am 06:53 Clear 50 10 45 7.2 83 83 SSE 3 6 29.64 1004 10 16 0.00 0.00
7:53 am 07:53 Cloudy 49 9.4 45 7.2 86 86 NW 6 9 29.67 1005 10 16 0.00 0.00
8:53 am 08:53 Partly Cloudy 52 11.1 47 8.3 83 83 NW 6 9 29.67 1005 10 16 0.00 0.00
9:53 am 09:53 Sunny 62 16.7 52 11.1 70 70 SSW 3 6 29.65 1004 10 16 0.00 0.00
10:53 am 10:53 Sunny 85 29.4 48 8.9 28 28 W 14 22 29.61 1003 10 16 0.00 0.00
11:53 am 11:53 Sunny 85 29.4 37 2.8 18 18 WNW 12 19 29.60 1002 10 16 0.00 0.00
12:53 pm 12:53 Sunny 84 28.9 43 6.1 24 24 WSW 9 15 29.60 1002 10 16 0.00 0.00
1:53 pm 13:53 Sunny 82 27.8 43 6.1 25 25 W 10 17 29.60 1002 10 16 0.00 0.00
2:53 pm 14:53 Sunny 82 27.8 44 6.7 26 26 W 7 11 29.59 1002 10 16 0.00 0.00
3:53 pm 15:53 Mostly Cloudy with Haze 80 26.7 44 6.7 28 28 W 5 7 29.60 1002 4 6 0.00 0.00
4:53 pm 16:53 Mostly Cloudy with Haze 79 26.1 45 7.2 30 30 Calm 29.61 1003 3 5 0.00 0.00
5:03 pm 17:03 Hazy 78 25.6 47 8.3 33 33 Calm 29.52 1000 3 5 0.00 0.00
5:53 pm 17:53 Mostly Sunny 79 26.1 41 5 26 26 NNE 13 20 29.66 1004 8 13 0.00 0.00
6:02 pm 18:02 Mostly Sunny 79 26.1 41 5 26 26 NNE 17 28 29.56 1001 10 16 0.00 0.00
6:53 pm 18:53 Mostly Sunny 75 23.9 40 4.4 28 28 NNE 18 30 29.68 1005 10 16 0.00 0.00
7:53 pm 19:53 Clear 69 20.6 44 6.7 41 41 NNE 15 24 29.74 1007 10 16 0.00 0.00
8:53 pm 20:53 Clear 67 19.4 44 6.7 44 44 N 13 20 29.78 1009 10 16 0.00 0.00
9:53 pm 21:53 Clear 65 18.3 43 6.1 45 45 Calm 29.81 1010 10 16 0.00 0.00
10:53 pm 22:53 Clear 63 17.2 43 6.1 48 48 NNE 6 9 29.78 1009 10 16 0.00 0.00
11:53 pm 23:53 Mostly Clear 62 16.7 43 6.1 50 50 NE 5 7 29.80 1009 10 16 0.00 0.00

Powered by AerisWeather